Regional Weather Roundup
Issued by NWS

Home | Current Version | Previous Version | Text Only | Print | Product List | Glossary Off
Versions: 1 2 3 4 5 6 7 8 9 10 11 12 13 14 15 16 17 18 19 20 21 22 23 24 25 26 27

000
ASUS45 KBOI 230610
RWRID

IDAHO REGIONAL WEATHER ROUNDUP
NATIONAL WEATHER SERVICE BOISE ID
1100 PM MST MON JAN 22 2018

NOTE: "FAIR" INDICATES FEW OR NO CLOUDS BELOW 12000 FEET
WITH NO SIGNIFICANT WEATHER AND/OR OBSTRUCTIONS TO VISIBILITY

IDZ012-014-230700-
SOUTHWEST IDAHO


CITY           SKY/WX    TMP DP  RH WIND       PRES   REMARKS
BOISE          PTCLDY    32  27  81 SE8       30.32R WCI  25
CALDWELL       CLEAR     30  28  92 CALM      30.33R
MOUNTAIN HOME  CLEAR     29  29 100 CALM      30.32S
$$

IDZ016-017-230700-
SOUTHCENTRAL IDAHO


CITY           SKY/WX    TMP DP  RH WIND       PRES   REMARKS
BURLEY         CLEAR     32  26  78 SW10      30.28S WCI  24
JEROME         CLEAR     28  26  92 S6        30.30S WCI  22
TWIN FALLS     CLEAR     29  26  89 S12       30.31R WCI  19
$$

IDZ019>023-230700-
SOUTHEAST IDAHO


CITY           SKY/WX    TMP DP  RH WIND       PRES   REMARKS
IDAHO FALLS    CLOUDY    28  27  96 S3        30.27R
POCATELLO      CLOUDY    32  26  78 W7        30.30R WCI  26
REXBURG        CLOUDY    26  26 100 SW5       30.25R WCI  20
$$

IDZ006-010-011-018-031-032-230700-
CENTRAL IDAHO MOUNTAINS


CITY           SKY/WX    TMP DP  RH WIND       PRES   REMARKS
MCCALL         CLOUDY    25  23  92 CALM      30.23R
HAILEY         PTCLDY    19  16  86 W10       30.26R WCI   8
STANLEY          N/A      9   5  84 SE6       30.24R WCI  -1
SALMON         FLURRIES  24  21  88 NW3       30.28R
CHALLIS        CLOUDY    25  20  81 CALM      30.24S
$$

IDZ002-004-006-007-026-230700-
NORTHERN IDAHO


CITY           SKY/WX    TMP DP  RH WIND       PRES   REMARKS
LEWISTON       PTCLDY    36  30  79 CALM      30.30R
LOWELL           N/A     35  34  96 CALM      30.34S
COEUR D`ALENE  CLEAR     28  26  92 W3        30.25R
MULLAN PASS    CLOUDY    20  19  96 NW6       30.11S WCI  12
$$




USA.gov is the U.S. government's official web portal to all federal, state and local government web resources and services.